When you browse on this site, cookies collect data to enhance your experience and personalize the content and advertising you see.
Visit our Privacy Policy to learn more. By continuing to use the site, you agree to this use of cookies and data.
  • In Spain
  • List of Countries
  • For 7 days
  • Water Temperature
  • Weather Map
  • Weather Widgets
  • user-avatar
    Login

    Hourly Weather San Juan

    Today, 15 December, Sunday

    Time Temperature Precipitation Wind Pressure Humidity
    00:00 +26°C° 0 mm 6 mps 704 mmHg 37%
    01:00 +24°C° 0 mm 6 mps 704 mmHg 37%
    02:00 +24°C° 0 mm 6 mps 705 mmHg 39%
    03:00 +23°C° 0 mm 6 mps 705 mmHg 40%
    04:00 +22°C° 0 mm 6 mps 705 mmHg 41%
    05:00 +23°C° 0 mm 6 mps 706 mmHg 39%
    06:00 +24°C° 0 mm 6 mps 706 mmHg 38%
    07:00 +26°C° 0 mm 6 mps 706 mmHg 36%
    08:00 +27°C° 0 mm 6 mps 706 mmHg 33%
    09:00 +28°C° 0 mm 6 mps 706 mmHg 30%
    10:00 +30°C° 0 mm 6 mps 706 mmHg 27%
    11:00 +30°C° 0 mm 5 mps 705 mmHg 26%
    12:00 +32°C° 0 mm 4 mps 704 mmHg 24%
    13:00 +33°C° 0 mm 4 mps 704 mmHg 23%
    14:00 +33°C° 0 mm 4 mps 703 mmHg 22%
    15:00 +33°C° 0 mm 4 mps 702 mmHg 21%
    16:00 +34°C° 0 mm 4 mps 702 mmHg 20%
    17:00 +33°C° 0 mm 4 mps 702 mmHg 21%
    18:00 +32°C° 0 mm 4 mps 703 mmHg 21%
    19:00 +30°C° 0 mm 4 mps 703 mmHg 22%
    20:00 +29°C° 0.1 mm 5 mps 704 mmHg 24%
    21:00 +29°C° 0.1 mm 6 mps 704 mmHg 26%
    22:00 +28°C° 0.1 mm 6 mps 705 mmHg 28%
    23:00 +27°C° 0 mm 7 mps 705 mmHg 31%

    Tomorrow, 16 December, Monday

    Time Temperature Precipitation Wind Pressure Humidity
    00:00 +26°C° 0 mm 7 mps 704 mmHg 35%
    01:00 +24°C° 0 mm 8 mps 704 mmHg 39%
    02:00 +23°C° 0 mm 8 mps 704 mmHg 39%
    03:00 +23°C° 0 mm 7 mps 704 mmHg 40%
    04:00 +22°C° 0 mm 7 mps 705 mmHg 41%
    05:00 +23°C° 0 mm 7 mps 705 mmHg 38%
    06:00 +23°C° 0 mm 7 mps 706 mmHg 36%
    07:00 +24°C° 0 mm 7 mps 706 mmHg 34%
    08:00 +26°C° 0.1 mm 6 mps 706 mmHg 33%
    09:00 +26°C° 0.1 mm 6 mps 706 mmHg 32%
    10:00 +27°C° 0.1 mm 6 mps 706 mmHg 32%
    11:00 +28°C° 0 mm 5 mps 706 mmHg 31%
    12:00 +29°C° 0 mm 5 mps 705 mmHg 30%
    13:00 +29°C° 0 mm 5 mps 705 mmHg 29%
    14:00 +29°C° 0 mm 4 mps 705 mmHg 29%
    15:00 +29°C° 0 mm 4 mps 704 mmHg 30%
    16:00 +29°C° 0 mm 4 mps 703 mmHg 30%
    17:00 +29°C° 0 mm 4 mps 704 mmHg 31%
    18:00 +28°C° 0 mm 4 mps 704 mmHg 32%
    19:00 +27°C° 0 mm 4 mps 705 mmHg 34%
    20:00 +27°C° 0 mm 4 mps 705 mmHg 35%
    21:00 +26°C° 0 mm 4 mps 705 mmHg 36%
    22:00 +25°C° 0 mm 4 mps 705 mmHg 37%
    23:00 +25°C° 0 mm 4 mps 705 mmHg 38%

    Day after tomorrow, 17 December, Tuesday

    Time Temperature Precipitation Wind Pressure Humidity
    00:00 +24°C° 0 mm 3 mps 705 mmHg 39%
    01:00 +24°C° 0 mm 3 mps 704 mmHg 40%
    02:00 +22°C° 0 mm 3 mps 704 mmHg 41%
    03:00 +22°C° 0 mm 3 mps 704 mmHg 42%
    04:00 +22°C° 0 mm 3 mps 704 mmHg 42%
    05:00 +23°C° 0 mm 4 mps 704 mmHg 38%
    06:00 +26°C° 0 mm 4 mps 705 mmHg 33%
    07:00 +28°C° 0 mm 5 mps 705 mmHg 29%
    08:00 +30°C° 0 mm 5 mps 705 mmHg 24%
    09:00 +32°C° 0 mm 6 mps 704 mmHg 20%
    10:00 +34°C° 0 mm 7 mps 704 mmHg 15%
    11:00 +35°C° 0 mm 7 mps 704 mmHg 13%
    12:00 +37°C° 0 mm 8 mps 703 mmHg 12%
    13:00 +38°C° 0 mm 8 mps 702 mmHg 10%
    14:00 +38°C° 0 mm 8 mps 702 mmHg 11%
    15:00 +37°C° 0 mm 8 mps 701 mmHg 11%
    16:00 +37°C° 0 mm 9 mps 700 mmHg 12%
    17:00 +34°C° 0 mm 8 mps 701 mmHg 14%
    18:00 +33°C° 0 mm 7 mps 701 mmHg 16%
    19:00 +30°C° 0 mm 7 mps 701 mmHg 18%
    20:00 +30°C° 0 mm 6 mps 702 mmHg 19%
    21:00 +29°C° 0 mm 6 mps 702 mmHg 20%
    22:00 +28°C° 0 mm 5 mps 702 mmHg 21%
    23:00 +28°C° 0 mm 4 mps 702 mmHg 22%

    18 December, Wednesday

    Time Temperature Precipitation Wind Pressure Humidity
    00:00 +27°C° 0 mm 4 mps 702 mmHg 24%
    01:00 +26°C° 0 mm 3 mps 702 mmHg 25%
    02:00 +25°C° 0 mm 3 mps 702 mmHg 26%
    03:00 +25°C° 0 mm 2 mps 701 mmHg 28%
    04:00 +24°C° 0 mm 2 mps 701 mmHg 29%
    05:00 +26°C° 0 mm 2 mps 702 mmHg 27%
    06:00 +28°C° 0 mm 3 mps 703 mmHg 24%
    07:00 +30°C° 0 mm 3 mps 703 mmHg 21%
    08:00 +31°C° 0 mm 3 mps 703 mmHg 20%
    09:00 +34°C° 0 mm 3 mps 703 mmHg 18%
    10:00 +35°C° 0 mm 3 mps 703 mmHg 17%
    11:00 +36°C° 0 mm 3 mps 702 mmHg 15%
    12:00 +37°C° 0 mm 3 mps 701 mmHg 14%
    13:00 +38°C° 0 mm 3 mps 701 mmHg 13%
    14:00 +40°C° 0 mm 4 mps 700 mmHg 13%
    15:00 +40°C° 0 mm 4 mps 700 mmHg 13%
    16:00 +40°C° 0 mm 4 mps 699 mmHg 13%
    17:00 +39°C° 0 mm 5 mps 700 mmHg 17%
    18:00 +36°C° 0 mm 5 mps 700 mmHg 20%
    19:00 +34°C° 0 mm 6 mps 700 mmHg 24%
    20:00 +34°C° 0 mm 5 mps 701 mmHg 26%
    21:00 +33°C° 0 mm 5 mps 701 mmHg 28%
    22:00 +32°C° 0 mm 4 mps 701 mmHg 30%
    23:00 +32°C° 0 mm 4 mps 701 mmHg 32%

    19 December, Thursday

    Time Temperature Precipitation Wind Pressure Humidity
    00:00 +30°C° 0 mm 4 mps 701 mmHg 34%
    01:00 +29°C° 0 mm 4 mps 700 mmHg 37%
    02:00 +28°C° 0 mm 3 mps 700 mmHg 39%
    03:00 +28°C° 0 mm 3 mps 700 mmHg 41%
    04:00 +27°C° 0 mm 2 mps 700 mmHg 43%
    05:00 +28°C° 0 mm 2 mps 701 mmHg 40%
    06:00 +29°C° 0 mm 2 mps 701 mmHg 37%
    07:00 +31°C° 0 mm 2 mps 702 mmHg 34%
    08:00 +33°C° 0 mm 4 mps 702 mmHg 31%
    09:00 +34°C° 0 mm 5 mps 702 mmHg 29%
    10:00 +36°C° 0 mm 7 mps 701 mmHg 26%
    11:00 +38°C° 0 mm 6 mps 701 mmHg 24%
    12:00 +39°C° 0 mm 6 mps 700 mmHg 21%
    13:00 +40°C° 0 mm 5 mps 700 mmHg 19%
    14:00 +40°C° 0 mm 5 mps 700 mmHg 18%
    15:00 +41°C° 0 mm 5 mps 699 mmHg 17%
    16:00 +41°C° 0 mm 5 mps 699 mmHg 16%
    17:00 +40°C° 0 mm 5 mps 700 mmHg 17%
    18:00 +38°C° 0 mm 4 mps 700 mmHg 18%
    19:00 +36°C° 0 mm 4 mps 700 mmHg 20%
    20:00 +35°C° 0 mm 4 mps 701 mmHg 21%
    21:00 +35°C° 0 mm 4 mps 701 mmHg 22%
    22:00 +34°C° 0 mm 4 mps 701 mmHg 22%
    23:00 +32°C° 0 mm 7 mps 701 mmHg 28%

    20 December, Friday

    Time Temperature Precipitation Wind Pressure Humidity
    00:00 +29°C° 0 mm 10 mps 702 mmHg 33%
    01:00 +28°C° 0 mm 12 mps 702 mmHg 39%
    02:00 +26°C° 0 mm 12 mps 702 mmHg 44%
    03:00 +23°C° 0 mm 11 mps 703 mmHg 48%
    04:00 +22°C° 0 mm 10 mps 703 mmHg 53%
    05:00 +22°C° 0 mm 10 mps 704 mmHg 48%
    06:00 +23°C° 0 mm 9 mps 704 mmHg 42%
    07:00 +24°C° 0 mm 9 mps 705 mmHg 37%
    08:00 +26°C° 0 mm 8 mps 704 mmHg 33%
    09:00 +28°C° 0 mm 8 mps 704 mmHg 30%
    10:00 +29°C° 0 mm 8 mps 704 mmHg 26%
    11:00 +30°C° 0 mm 7 mps 703 mmHg 24%
    12:00 +32°C° 0 mm 7 mps 703 mmHg 22%
    13:00 +33°C° 0 mm 7 mps 702 mmHg 20%
    14:00 +33°C° 0 mm 7 mps 702 mmHg 20%
    15:00 +33°C° 0 mm 7 mps 702 mmHg 19%
    16:00 +34°C° 0 mm 6 mps 702 mmHg 19%
    17:00 +32°C° 0 mm 5 mps 702 mmHg 20%
    18:00 +30°C° 0 mm 4 mps 702 mmHg 21%
    19:00 +29°C° 0 mm 3 mps 703 mmHg 23%
    20:00 +28°C° 0 mm 4 mps 703 mmHg 26%
    21:00 +28°C° 0 mm 4 mps 703 mmHg 29%
    22:00 +27°C° 0 mm 5 mps 704 mmHg 31%
    23:00 +27°C° 0 mm 5 mps 704 mmHg 33%
    Show more